Weather in Yumas

Russia / Khanty-Mansi Autonomous Okrug — Yugra     59°31′42″N   66°24′54″E
temp.,
°C
wind,
m/s
gust,
m/s
humid.,
%
clouds,
%
prec.,
mm/h
press.,
hPa
HPBL,
m
8 august, mon
mon823:00+19ne226457 0.0 101817
02:00+17ne117375 0.0 101911
05:00+17nnw117353 0.0 101911
08:00+22n125827 0.0 1020245
11:00+26n124444 0.0 10191034
14:00+29nne123882 0.0 10181742
17:00+29n12375 0.0 10172001
20:00+24w22575 0.0 101711
9 august, tue
tue923:00+20w33633 0.0 101823
02:00+18w22710 0.0 101811
05:00+18w22750 0.0 101814
08:00+23wnw34604 0.0 1018246
11:00+28wnw33475 0.0 1017949
14:00+31nw33364 0.0 10162662
17:00+26wnw585398 0.0 1016533
20:00+22wnw337471 0.9 101749
10 august, wed
wed1023:00+19n498783 2.6 1017153
02:00+17n488444 0.6 1018124
05:00+16nne389262 0.6 1018158
08:00+19ne47715 0.0 1019423
11:00+24ne554591 0.0 10201179
14:00+25ne553216 0.0 10191739
17:00+25ene45335 0.0 10191769
20:00+20ene355311 0.0 102073
11 august, thu
thu1123:00+16e36595 0.0 102098
02:00+15se356452 0.0 102080
05:00+14sse356730 0.0 101988
08:00+18sse485619 0.0 1019328
11:00+23sse683943 0.0 10181204
14:00+25s673442 0.0 10151513
17:00+25s573815 0.0 10131385
20:00+20sse41057100 0.0 1011233
12 august, fri
fri1223:00+18ssw61381100 0.1 1011420
02:00+16s41094100 0.1 1009389
05:00+16s2598100 0.1 1008166
08:00+18ssw358556 0.0 1007492
11:00+19wsw4577100 0.3 1007927
14:00+20sw456598 0.1 10061098
17:00+18w3576100 0.1 1006672
20:00+16wnw3690100 0.2 1005308